Madison, SD

4:02 PM CST on November 11, 2019 (GMT -0600)
Madison Municipal

Weather History for KMDS - September, 2019

Change the Weather History Date:

Sunday, September 8, 2019

  Actual Average Record
Temperature  
Mean Temperature 56 °F -  
Max Temperature 59 °F 78 °F 82 °F (2013)
Min Temperature 53 °F 52 °F 41 °F (2010)
Degree Days  
Heating Degree Days 9    
Growing Degree Days 6 (Base 50)    
Moisture  
Dew Point 56 °F    
Average Humidity 100    
Maximum Humidity 100    
Minimum Humidity 100    
Precipitation  
Precipitation 0.93 in - - ()
Sea Level Pressure  
Sea Level Pressure 30.01 in    
Wind  
Wind Speed 11 mph ()    
Max Wind Speed 17 mph    
Max Gust Speed 22 mph    
Visibility 6.8 miles    
Events Rain    
Averages and records for this station are not official NWS values.
T = Trace of Precipitation, MM = Missing Value Source: Averaged Metar Reports

Daily Weather History Graph

Daily Weather History Graph

Search for Another Location

Airport or City:

Astronomy

Sep. 08, 2019 Rise Set
Actual Time 6:59 AM CDT 7:51 PM CDT
Civil Twilight 6:30 AM CDT 8:21 PM CDT
Nautical Twilight 5:55 AM CDT 8:56 PM CDT
Astronomical Twilight 5:18 AM CDT 9:32 PM CDT
Moon 5:12 PM CDT (9/8) 1:29 AM CDT (9/8)
Length of Visible Light 13h 51m
Length of Day
12h 52m
Waxing Gibbous, 75% of the Moon is Illuminated
Sep 8
Waxing Gibbous
Sep 13
Full
Sep 21
Last Quarter
Sep 28
New
Oct 5
First Quarter

Hourly Weather History & Observations

Time (CDT) Temp. Dew Point Humidity Pressure Visibility Wind Dir Wind Speed Gust Speed Precip Events Conditions
12:00 AM 55.4 °F 55.4 °F 100% 30.01 in 10.0 mi East 11.5 mph - N/A   Overcast
12:15 AM 55.4 °F 55.4 °F 100% 30.01 in 10.0 mi East 13.8 mph 18.4 mph N/A   Overcast
12:20 AM 55.4 °F 55.4 °F 100% 30.01 in 10.0 mi ESE 10.4 mph 18.4 mph N/A   Overcast
12:35 AM 55.4 °F 55.4 °F 100% 30.01 in 10.0 mi East 10.4 mph - N/A   Overcast
12:40 AM 55.4 °F 55.4 °F 100% 30.01 in 10.0 mi East 13.8 mph - N/A Rain Light Rain
12:55 AM 55.4 °F 55.4 °F 100% 30.01 in 10.0 mi East 11.5 mph - N/A   Overcast
1:15 AM 55.4 °F 55.4 °F 100% 30.02 in 10.0 mi East 11.5 mph - N/A   Overcast
1:20 AM 55.4 °F 55.4 °F 100% 30.01 in 10.0 mi ESE 11.5 mph - N/A   Overcast
1:35 AM 55.4 °F 55.4 °F 100% 30.01 in 10.0 mi ESE 11.5 mph - N/A   Overcast
1:40 AM 55.4 °F 55.4 °F 100% 30.00 in 10.0 mi ESE 11.5 mph - N/A   Overcast
1:55 AM 55.4 °F 55.4 °F 100% 30.01 in 10.0 mi ESE 13.8 mph 18.4 mph N/A   Overcast
2:00 AM 55.4 °F 55.4 °F 100% 30.01 in 10.0 mi ESE 12.7 mph - N/A   Overcast
2:15 AM 55.4 °F 55.4 °F 100% 30.01 in 10.0 mi ESE 12.7 mph 16.1 mph N/A   Overcast
2:20 AM 55.4 °F 55.4 °F 100% 30.00 in 10.0 mi ESE 11.5 mph - N/A   Overcast
2:35 AM 55.4 °F 55.4 °F 100% 30.00 in 10.0 mi ESE 12.7 mph - N/A   Overcast
2:40 AM 55.4 °F 55.4 °F 100% 29.99 in 10.0 mi ESE 10.4 mph - N/A   Overcast
2:55 AM 55.4 °F 55.4 °F 100% 29.99 in 10.0 mi ESE 10.4 mph 18.4 mph N/A   Overcast
3:15 AM 55.4 °F 55.4 °F 100% 29.99 in 3.0 mi ESE 9.2 mph - N/A   Overcast
3:35 AM 55.4 °F 55.4 °F 100% 29.99 in 2.5 mi East 8.1 mph - 0.07 in Rain Heavy Rain
3:40 AM 55.4 °F 55.4 °F 100% 29.99 in 3.0 mi East 10.4 mph - 0.09 in Rain Rain
3:55 AM 55.4 °F 55.4 °F 100% 30.01 in 2.5 mi NNE 4.6 mph - 0.27 in Rain Heavy Rain
4:00 AM 55.4 °F 55.4 °F 100% 30.01 in 2.5 mi NE 5.8 mph - 0.33 in Rain Heavy Rain
4:15 AM 55.4 °F 55.4 °F 100% 30.01 in 4.0 mi East 9.2 mph - 0.23 in Rain Heavy Rain
4:35 AM 55.4 °F 55.4 °F 100% 30.01 in 2.5 mi NE 10.4 mph - 0.50 in Rain Heavy Rain
4:55 AM 55.4 °F 55.4 °F 100% 30.01 in 10.0 mi ENE 4.6 mph - 0.52 in Rain Light Rain
5:15 AM 55.4 °F 55.4 °F 100% 30.01 in 10.0 mi East 9.2 mph - N/A Rain Light Rain
5:35 AM 55.4 °F 55.4 °F 100% 30.01 in 10.0 mi East 11.5 mph - N/A   Overcast
5:55 AM 55.4 °F 55.4 °F 100% 30.01 in 10.0 mi East 15.0 mph - N/A   Overcast
6:15 AM 53.6 °F 53.6 °F 100% 30.01 in 10.0 mi East 12.7 mph 17.3 mph N/A   Overcast
6:35 AM 53.6 °F 53.6 °F 100% 30.01 in 10.0 mi East 12.7 mph - N/A   Overcast
6:40 AM 53.6 °F 53.6 °F 100% 30.01 in 10.0 mi East 12.7 mph - N/A Rain Light Rain
6:55 AM 53.6 °F 53.6 °F 100% 30.02 in 2.5 mi East 10.4 mph - 0.07 in Rain Rain
7:00 AM 53.6 °F 53.6 °F 100% 30.01 in 5.0 mi East 17.3 mph 20.7 mph 0.07 in Rain Light Rain
7:15 AM 53.6 °F 53.6 °F 100% 30.01 in 10.0 mi ESE 13.8 mph 20.7 mph N/A   Overcast
7:35 AM 53.6 °F 53.6 °F 100% 30.01 in 10.0 mi ESE 11.5 mph - N/A   Overcast
7:40 AM 53.6 °F 53.6 °F 100% 30.01 in 10.0 mi ESE 13.8 mph 18.4 mph N/A   Overcast
7:55 AM 53.6 °F 53.6 °F 100% 30.01 in 10.0 mi East 12.7 mph 17.3 mph N/A   Overcast
8:00 AM 53.6 °F 53.6 °F 100% 30.01 in 10.0 mi East 10.4 mph 18.4 mph N/A Rain Light Rain
8:15 AM 53.6 °F 53.6 °F 100% 30.02 in 10.0 mi East 13.8 mph 19.6 mph N/A   Overcast
8:20 AM 53.6 °F 53.6 °F 100% 30.02 in 10.0 mi ESE 12.7 mph 19.6 mph N/A   Overcast
8:35 AM 53.6 °F 53.6 °F 100% 30.01 in 7.0 mi ESE 12.7 mph 21.9 mph N/A   Overcast
8:55 AM 53.6 °F 53.6 °F 100% 30.01 in 5.0 mi ESE 15.0 mph 19.6 mph N/A Rain Light Rain
9:00 AM 53.6 °F 53.6 °F 100% 30.01 in 9.0 mi ESE 15.0 mph 19.6 mph N/A Rain Light Rain
9:15 AM 53.6 °F 53.6 °F 100% 30.01 in 10.0 mi ESE 12.7 mph - N/A   Overcast
9:20 AM 53.6 °F 53.6 °F 100% 30.01 in 9.0 mi ESE 12.7 mph 19.6 mph N/A   Overcast
9:35 AM 53.6 °F 53.6 °F 100% 30.02 in 5.0 mi ESE 11.5 mph 19.6 mph N/A   Overcast
9:40 AM 53.6 °F 53.6 °F 100% 30.02 in 5.0 mi ESE 11.5 mph 17.3 mph N/A   Overcast
9:55 AM 53.6 °F 53.6 °F 100% 30.02 in 5.0 mi ESE 12.7 mph 19.6 mph N/A   Overcast
10:00 AM 53.6 °F 53.6 °F 100% 30.02 in 5.0 mi ESE 10.4 mph 19.6 mph N/A   Overcast
10:15 AM 55.4 °F 55.4 °F 100% 30.02 in 8.0 mi ESE 10.4 mph - N/A   Overcast
10:20 AM 55.4 °F 55.4 °F 100% 30.02 in 9.0 mi ESE 11.5 mph 17.3 mph N/A   Overcast
10:35 AM 55.4 °F 55.4 °F 100% 30.02 in 5.0 mi ESE 11.5 mph - N/A   Overcast
10:55 AM 55.4 °F 55.4 °F 100% 30.02 in 3.0 mi ESE 11.5 mph - N/A   Overcast
11:15 AM 55.4 °F 55.4 °F 100% 30.02 in 2.0 mi ESE 10.4 mph - N/A Rain Light Rain
11:20 AM 55.4 °F 55.4 °F 100% 30.02 in 2.0 mi ESE 10.4 mph - N/A Rain Light Rain
11:35 AM 55.4 °F 55.4 °F 100% 30.03 in 2.5 mi ESE 10.4 mph - N/A Rain Light Rain
11:55 AM 55.4 °F 55.4 °F 100% 30.03 in 8.0 mi ESE 12.7 mph 17.3 mph N/A   Mostly Cloudy
12:00 PM 55.4 °F 55.4 °F 100% 30.03 in 7.0 mi ESE 9.2 mph 17.3 mph N/A   Overcast
12:15 PM 55.4 °F 55.4 °F 100% 30.03 in 3.0 mi East 9.2 mph - N/A   Overcast
12:35 PM 57.2 °F 57.2 °F 100% 30.03 in 2.0 mi East 11.5 mph - N/A   Overcast
12:55 PM 55.4 °F 55.4 °F 100% 30.03 in 4.0 mi East 12.7 mph - N/A   Overcast
1:15 PM 57.2 °F 57.2 °F 100% 30.03 in 5.0 mi East 11.5 mph - N/A   Overcast
1:20 PM 57.2 °F 57.2 °F 100% 30.03 in 7.0 mi East 11.5 mph - N/A   Overcast
1:35 PM 57.2 °F 57.2 °F 100% 30.03 in 9.0 mi East 12.7 mph 17.3 mph N/A   Overcast
1:55 PM 57.2 °F 57.2 °F 100% 30.02 in 10.0 mi East 11.5 mph - N/A   Mostly Cloudy
2:15 PM 57.2 °F 57.2 °F 100% 30.02 in 10.0 mi East 12.7 mph - N/A   Overcast
2:20 PM 57.2 °F 57.2 °F 100% 30.02 in 5.0 mi East 13.8 mph - N/A   Overcast
2:35 PM 57.2 °F 57.2 °F 100% 30.02 in 2.5 mi East 12.7 mph - N/A   Overcast
2:40 PM 57.2 °F 57.2 °F 100% 30.01 in 2.5 mi East 11.5 mph - N/A   Overcast
2:55 PM 57.2 °F 57.2 °F 100% 30.02 in 2.0 mi East 12.7 mph 16.1 mph N/A   Overcast
3:15 PM 57.2 °F 57.2 °F 100% 30.02 in 3.0 mi East 12.7 mph - N/A   Overcast
3:20 PM 57.2 °F 57.2 °F 100% 30.02 in 3.0 mi East 11.5 mph - N/A   Overcast
3:35 PM 57.2 °F 57.2 °F 100% 30.02 in 4.0 mi East 11.5 mph - N/A   Overcast
3:40 PM 57.2 °F 57.2 °F 100% 30.02 in 4.0 mi East 10.4 mph - N/A   Overcast
3:55 PM 57.2 °F 57.2 °F 100% 30.01 in 5.0 mi East 11.5 mph - N/A   Overcast
4:00 PM 57.2 °F 57.2 °F 100% 30.01 in 7.0 mi East 11.5 mph - N/A   Overcast
4:15 PM 57.2 °F 57.2 °F 100% 30.02 in 8.0 mi East 10.4 mph - N/A   Overcast
4:35 PM 57.2 °F 57.2 °F 100% 30.01 in 2.5 mi East 10.4 mph - N/A Rain Light Rain
4:40 PM 57.2 °F 57.2 °F 100% 30.01 in 3.0 mi East 9.2 mph - N/A Rain Light Rain
4:55 PM 57.2 °F 57.2 °F 100% 30.01 in 2.0 mi East 10.4 mph - N/A Rain Light Rain
5:00 PM 57.2 °F 57.2 °F 100% 30.01 in 1.5 mi East 9.2 mph - N/A Rain Light Rain
5:15 PM 57.2 °F 57.2 °F 100% 30.01 in 4.0 mi East 10.4 mph - N/A   Mostly Cloudy
5:20 PM 57.2 °F 57.2 °F 100% 30.01 in 6.0 mi East 11.5 mph - N/A   Mostly Cloudy
5:35 PM 57.2 °F 57.2 °F 100% 30.01 in 10.0 mi East 9.2 mph - N/A   Mostly Cloudy
5:55 PM 59.0 °F 59.0 °F 100% 30.00 in 5.0 mi East 9.2 mph - N/A   Overcast
6:00 PM 57.2 °F 57.2 °F 100% 30.01 in 3.0 mi East 11.5 mph - N/A Rain Light Rain
6:15 PM 57.2 °F 57.2 °F 100% 30.01 in 3.0 mi East 10.4 mph - N/A   Overcast
6:20 PM 57.2 °F 57.2 °F 100% 30.01 in 3.0 mi East 10.4 mph - N/A Rain Light Rain
6:35 PM 57.2 °F 57.2 °F 100% 30.01 in 3.0 mi ENE 9.2 mph - N/A   Overcast
6:55 PM 57.2 °F 57.2 °F 100% 30.00 in 5.0 mi East 11.5 mph - N/A   Overcast
7:15 PM 57.2 °F 57.2 °F 100% 30.00 in 7.0 mi East 9.2 mph - N/A   Overcast
7:20 PM 57.2 °F 57.2 °F 100% 30.00 in 10.0 mi East 11.5 mph - N/A   Overcast
7:35 PM 57.2 °F 57.2 °F 100% 30.00 in 10.0 mi East 11.5 mph 16.1 mph N/A   Overcast
7:55 PM 57.2 °F 57.2 °F 100% 30.00 in 10.0 mi East 15.0 mph 18.4 mph N/A   Overcast
8:00 PM 57.2 °F 57.2 °F 100% 30.00 in 10.0 mi East 11.5 mph 19.6 mph N/A   Overcast
8:15 PM 57.2 °F 57.2 °F 100% 30.01 in 10.0 mi ESE 16.1 mph 19.6 mph N/A   Overcast
8:35 PM 57.2 °F 57.2 °F 100% 30.01 in 10.0 mi ESE 11.5 mph 18.4 mph N/A   Overcast
8:40 PM 57.2 °F 57.2 °F 100% 30.02 in 10.0 mi ESE 13.8 mph - N/A   Overcast
8:55 PM 57.2 °F 57.2 °F 100% 30.03 in 10.0 mi ESE 11.5 mph 18.4 mph N/A   Overcast
9:00 PM 57.2 °F 57.2 °F 100% 30.03 in 10.0 mi ESE 11.5 mph 18.4 mph N/A   Overcast
9:15 PM 57.2 °F 57.2 °F 100% 30.03 in 8.0 mi SE 9.2 mph 19.6 mph N/A   Overcast
9:55 PM 57.2 °F 57.2 °F 100% 30.04 in 10.0 mi SE 15.0 mph 20.7 mph N/A   Overcast
10:00 PM 57.2 °F 57.2 °F 100% 30.04 in 10.0 mi SE 13.8 mph 20.7 mph N/A   Overcast
10:15 PM 57.2 °F 57.2 °F 100% 30.04 in 10.0 mi SE 9.2 mph - N/A   Overcast
10:20 PM 57.2 °F 57.2 °F 100% 30.04 in 10.0 mi SE 13.8 mph - N/A   Overcast
10:35 PM 57.2 °F 57.2 °F 100% 30.04 in 10.0 mi SE 11.5 mph 18.4 mph N/A   Overcast
10:55 PM 57.2 °F 57.2 °F 100% 30.04 in 4.0 mi ESE 10.4 mph - N/A   Overcast
11:15 PM 57.2 °F 57.2 °F 100% 30.03 in 4.0 mi ESE 10.4 mph - N/A   Overcast
11:35 PM 57.2 °F 57.2 °F 100% 30.03 in 2.0 mi ESE 9.2 mph - N/A   Overcast
11:40 PM 57.2 °F 57.2 °F 100% 30.03 in 2.0 mi ESE 10.4 mph - N/A   Overcast
11:55 PM 57.2 °F 57.2 °F 100% 30.03 in 2.0 mi ESE 9.2 mph - N/A   Overcast